Weather Roundup
Issued by NWS Corpus Christi, TX

Home | Current Version | Previous Version | Text Only | Print | Product List | Glossary On
Versions: 1 2 3 4 5 6 7 8 9 10 11 12 13 14 15 16 17 18 19 20 21 22 23 24 25 26 27 28 29 30 31 32 33 34 35 36 37 38 39 40 41 42 43 44 45 46 47 48 49 50
000
ASUS44 KCRP 272310
HRRCRP

SOUTH TEXAS REGIONAL WEATHER ROUNDUP
NATIONAL WEATHER SERVICE CORPUS CHRISTI TX
600 PM CDT TUE SEP 27 2016


TXZ229>244-280000-
...CORPUS CHRISTI AREA OBSERVATIONS...

CITY           SKY/WX    TMP DP  RH WIND       PRES   REMARKS
CORPUS CHRISTI CLOUDY    83  72  69 N8        29.96F
NAS CORPUS CHR CLOUDY    82  74  76 N10       29.96S
ROCKPORT       CLOUDY    83  71  67 N9        29.95F
KINGSVILLE NAS LGT RAIN  81  73  76 N12       29.96F
ALICE          CLOUDY    80  71  74 NW9       29.97F
FALFURRIAS     CLOUDY    80  69  69 NW6       29.97F
$$

...VICTORIA AREA OBSERVATIONS...

CITY           SKY/WX    TMP DP  RH WIND       PRES   REMARKS
VICTORIA       CLOUDY    81  69  67 N12       29.98S
BEEVILLE       CLOUDY    80  72  76 N8        29.99S
PLEASANTON     CLOUDY    77  66  68 N5        30.03S
SAN ANTONIO    CLOUDY    76  64  66 N7        30.04S
$$

...LAREDO AREA OBSERVATIONS...

CITY           SKY/WX    TMP DP  RH WIND       PRES   REMARKS
LAREDO         CLOUDY    74  64  71 W8        30.04S
COTULLA        CLOUDY    81  67  62 N6        30.02S
DEL RIO        CLOUDY    76  59  55 W8        30.04S
MCALLEN        CLOUDY    80  68  66 NW13G18   29.97F
HEBBRONVILLE   CLOUDY    75  67  76 NW9       30.02S
$$

...OTHER TEXAS OBSERVATIONS...

CITY           SKY/WX    TMP DP  RH WIND       PRES   REMARKS
BROWNSVILLE    CLOUDY    76  73  91 NW7       29.94S
HOUSTON        CLOUDY    82  69  64 N9        29.96S
COL. STATION   MOSUNNY   79  62  56 N10       30.01R
AUSTIN         PTSUNNY   79  62  56 N10       30.02S
WACO           MOSUNNY   80  53  39 N9        30.03S
FORT WORTH     CLOUDY    76  43  30 N5        30.02F
WICHITA FALLS  SUNNY     78  44  29 SE5       30.03F
LUBBOCK        PTSUNNY   76  37  24 S5        30.11F
EL PASO        MOSUNNY   75  44  33 VRB3      30.13F
$$

...MARINE OBSERVATIONS...

STATION/POSITION TIME  SKY/WX   TEMP    WIND        PRES    VSBY  WAVE   SWELL
                                AIR SEA DIR/SP/G                  HT/PER HT/PER
                 (UTC)          (F)     (DEG/KT/KT) (MB)    (MI)  (FT/S) (FT/S)
PORT ARANSAS     2300            80 85   10/ 11/ 13 1014.5F
BUOY 90 E PORT A 2250            81 85   10/ 10/ 12 1013.2F         3/ 5   2/ 5
BUOY 45 SE BAFFI 2250            81 86   10/ 16/ 17 1012.9F         4/ 5
BUOY 200 E PT IS 2250            80 87  360/  4/  6 1011.9F         2/ 5   2/ 5
BUOY 15 E GALVES 2250            81 86  270/  2/  4 1014.3S         2/ 6   2/ 6
$$




USA.gov is the U.S. government's official web portal to all federal, state and local government web resources and services.